User: anonymous   Login
Location: Unspecified
(0.0000°N, 0.0000°E)
Time: 03:18:01
(UTC+00:00)
Language:

Sedsat-1 - Orbit

View from above orbital plane
View from above orbital plane
View from above satellite
View from above satellite

Ground track
Ground track

The orbit is defined by the following mean orbital elements,

1 25509U          26106.35785002 +.00000000 +00000-0 +63485-4 0 00009
2 25509  31.4315 107.1288 0336561 249.2774 107.1472 14.33308602    08
Epoch (UTC): 16 April 2026 08:35:18
Eccentricity: 0.0336561
inclination: 31.4315°
perigee height: 540 km
apogee height: 1022 km
right ascension of ascending node: 107.1288°
argument of perigee: 249.2774°
revolutions per day: 14.33308602
mean anomaly at epoch: 107.1472°

The dashed part of the orbit path shows where the satellite is in the earth's shadow,  

DLR